Weather History for KCDJ - October, 2012

Change the Weather History Date:

Monday, October 8, 2012

  Actual Average (KIRK) Record (KIRK)
Temperature  
Mean Temperature 48 °F 56 °F  
Max Temperature 63 °F 67 °F 88 °F (1938)
Min Temperature 33 °F 45 °F 26 °F (1987)
Degree Days  
Heating Degree Days 18 10  
Month to date heating degree days 71  
Since 1 July heating degree days 178  
Cooling Degree Days 0 1  
Month to date cooling degree days 8  
Year to date cooling degree days 935  
Moisture  
Dew Point 32 °F    
Average Humidity 55    
Maximum Humidity 82    
Minimum Humidity 34    
Precipitation  
Precipitation 0.00 in 0.10 in 1.71 in (2004)
Month to date precipitation 0.87  
Year to date precipitation 32.39  
Sea Level Pressure  
Sea Level Pressure 30.07 in    
Wind  
Wind Speed 7 mph (South)    
Max Wind Speed 17 mph    
Max Gust Speed 28 mph    
T = Trace of Precipitation, MM = Missing Value Source: NWS Daily Summary

Daily Weather History Graph

Daily Weather History Graph

Search for Another Location

Airport or City:

Trip Planner

Search our weather history database for the weather conditions in past years. The results will help you decide how hot, cold, wet, or windy it might be!

Date:

Astronomy

Oct. 08, 2012 Rise Set
Actual Time 7:17 AM CDT 6:44 PM CDT
Civil Twilight 6:50 AM CDT 7:11 PM CDT
Nautical Twilight 6:19 AM CDT 7:42 PM CDT
Astronomical Twilight 5:48 AM CDT 8:14 PM CDT
Moon No Moon Rise 2:34 PM CDT (10/8)
Length of Visible Light 12h 20m
Length of Day
11h 26m
Last Quarter, 46% of the Moon is Illuminated
Oct 8
Last Quarter
Oct 15
New
Oct 21
First Quarter
Oct 29
Full
Nov 6
Last Quarter

Hourly Weather History & Observations

Time (CDT) Temp. Windchill Dew Point Humidity Pressure Visibility Wind Dir Wind Speed Gust Speed Precip Events Conditions
12:52 AM 37.0 °F 34.5 °F 28.0 °F 70% 30.16 in - South 3.5 mph - N/A   Unknown
1:52 AM 35.1 °F - 28.0 °F 76% 30.17 in - Calm Calm - N/A   Unknown
2:52 AM 35.1 °F - 28.0 °F 76% 30.16 in - Calm Calm - N/A   Unknown
3:52 AM 34.0 °F 31.0 °F 27.0 °F 75% 30.14 in - South 3.5 mph - N/A   Unknown
4:52 AM 34.0 °F 31.0 °F 28.0 °F 79% 30.14 in - South 3.5 mph - N/A   Unknown
5:52 AM 33.1 °F 28.7 °F 27.0 °F 78% 30.14 in - South 4.6 mph - N/A   Unknown
6:52 AM 33.1 °F 30.0 °F 28.0 °F 82% 30.15 in - South 3.5 mph - N/A   Unknown
7:52 AM 35.1 °F 31.0 °F 28.0 °F 76% 30.15 in - South 4.6 mph - N/A   Unknown
8:52 AM 41.0 °F 37.1 °F 32.0 °F 70% 30.15 in - South 5.8 mph - N/A   Unknown
9:52 AM 48.9 °F - 32.0 °F 52% 30.14 in - SSW 10.4 mph - N/A   Unknown
10:52 AM 55.0 °F - 33.1 °F 43% 30.12 in - SW 13.8 mph 21.9 mph N/A   Unknown
11:52 AM 57.9 °F - 32.0 °F 37% 30.10 in - SSW 11.5 mph 21.9 mph N/A   Unknown
12:52 PM 60.1 °F - 33.1 °F 36% 30.08 in - South 13.8 mph 27.6 mph N/A   Unknown
1:52 PM 62.1 °F - 33.1 °F 34% 30.04 in - SSW 13.8 mph 23.0 mph N/A   Unknown
2:52 PM 62.1 °F - 33.1 °F 34% 30.01 in - South 17.3 mph 26.5 mph N/A   Unknown
3:52 PM 62.1 °F - 33.1 °F 34% 29.99 in - South 17.3 mph 25.3 mph N/A   Unknown
4:52 PM 62.1 °F - 34.0 °F 35% 29.98 in - South 12.7 mph 27.6 mph N/A   Unknown
5:52 PM 61.0 °F - 33.1 °F 35% 29.99 in - SSW 11.5 mph 19.6 mph N/A   Unknown
6:52 PM 57.0 °F - 34.0 °F 42% 29.99 in - South 9.2 mph - N/A   Unknown
7:52 PM 54.0 °F - 35.1 °F 49% 29.99 in - South 11.5 mph - N/A   Unknown
8:52 PM 53.1 °F - 35.1 °F 50% 30.00 in - South 8.1 mph - N/A   Unknown
9:52 PM 54.0 °F - 35.1 °F 49% 29.99 in - South 9.2 mph - N/A   Unknown
10:52 PM 54.0 °F - 35.1 °F 49% 29.98 in - SSW 12.7 mph - N/A   Unknown
11:52 PM 52.0 °F - 35.1 °F 53% 29.96 in - South 9.2 mph - N/A   Unknown